Index of /20260506/WXO-DD/model_gdps/15km/12/012
Name Last modified Size Description
Parent Directory -
20260506T12Z_MSC_GDPS_AbsoluteVorticity_IsbL-0200_LatLon0.15_PT012H.grib2 2026-05-06 18:24 1.5M
20260506T12Z_MSC_GDPS_AbsoluteVorticity_IsbL-0250_LatLon0.15_PT012H.grib2 2026-05-06 18:24 1.3M
20260506T12Z_MSC_GDPS_AbsoluteVorticity_IsbL-0500_LatLon0.15_PT012H.grib2 2026-05-06 18:24 1.5M
20260506T12Z_MSC_GDPS_AbsoluteVorticity_IsbL-0700_LatLon0.15_PT012H.grib2 2026-05-06 18:24 1.3M
20260506T12Z_MSC_GDPS_AbsoluteVorticity_IsbL-0850_LatLon0.15_PT012H.grib2 2026-05-06 18:24 1.6M
20260506T12Z_MSC_GDPS_AirTemp-Max_AGL-2m_LatLon0.15_PT012H.grib2 2026-05-06 18:24 734K
20260506T12Z_MSC_GDPS_AirTemp-Min_AGL-2m_LatLon0.15_PT012H.grib2 2026-05-06 18:24 790K
20260506T12Z_MSC_GDPS_AirTemp_AGL-120m_LatLon0.15_PT012H.grib2 2026-05-06 18:24 900K
20260506T12Z_MSC_GDPS_AirTemp_AGL-2m_LatLon0.15_PT012H.grib2 2026-05-06 18:24 1.0M
20260506T12Z_MSC_GDPS_AirTemp_AGL-40m_LatLon0.15_PT012H.grib2 2026-05-06 18:24 921K
20260506T12Z_MSC_GDPS_AirTemp_AGL-80m_LatLon0.15_PT012H.grib2 2026-05-06 18:24 909K
20260506T12Z_MSC_GDPS_AirTemp_IsbL-0001_LatLon0.15_PT012H.grib2 2026-05-06 18:24 669K
20260506T12Z_MSC_GDPS_AirTemp_IsbL-0005_LatLon0.15_PT012H.grib2 2026-05-06 18:24 699K
20260506T12Z_MSC_GDPS_AirTemp_IsbL-0010_LatLon0.15_PT012H.grib2 2026-05-06 18:24 706K
20260506T12Z_MSC_GDPS_AirTemp_IsbL-0020_LatLon0.15_PT012H.grib2 2026-05-06 18:24 792K
20260506T12Z_MSC_GDPS_AirTemp_IsbL-0030_LatLon0.15_PT012H.grib2 2026-05-06 18:24 840K
20260506T12Z_MSC_GDPS_AirTemp_IsbL-0050_LatLon0.15_PT012H.grib2 2026-05-06 18:24 809K
20260506T12Z_MSC_GDPS_AirTemp_IsbL-0100_LatLon0.15_PT012H.grib2 2026-05-06 18:24 951K
20260506T12Z_MSC_GDPS_AirTemp_IsbL-0150_LatLon0.15_PT012H.grib2 2026-05-06 18:24 971K
20260506T12Z_MSC_GDPS_AirTemp_IsbL-0175_LatLon0.15_PT012H.grib2 2026-05-06 18:24 959K
20260506T12Z_MSC_GDPS_AirTemp_IsbL-0200_LatLon0.15_PT012H.grib2 2026-05-06 18:24 1.0M
20260506T12Z_MSC_GDPS_AirTemp_IsbL-0225_LatLon0.15_PT012H.grib2 2026-05-06 18:24 1.0M
20260506T12Z_MSC_GDPS_AirTemp_IsbL-0250_LatLon0.15_PT012H.grib2 2026-05-06 18:24 1.0M
20260506T12Z_MSC_GDPS_AirTemp_IsbL-0275_LatLon0.15_PT012H.grib2 2026-05-06 18:24 1.0M
20260506T12Z_MSC_GDPS_AirTemp_IsbL-0300_LatLon0.15_PT012H.grib2 2026-05-06 18:24 1.0M
20260506T12Z_MSC_GDPS_AirTemp_IsbL-0350_LatLon0.15_PT012H.grib2 2026-05-06 18:24 932K
20260506T12Z_MSC_GDPS_AirTemp_IsbL-0400_LatLon0.15_PT012H.grib2 2026-05-06 18:24 947K
20260506T12Z_MSC_GDPS_AirTemp_IsbL-0450_LatLon0.15_PT012H.grib2 2026-05-06 18:24 969K
20260506T12Z_MSC_GDPS_AirTemp_IsbL-0500_LatLon0.15_PT012H.grib2 2026-05-06 18:24 1.0M
20260506T12Z_MSC_GDPS_AirTemp_IsbL-0550_LatLon0.15_PT012H.grib2 2026-05-06 18:24 803K
20260506T12Z_MSC_GDPS_AirTemp_IsbL-0600_LatLon0.15_PT012H.grib2 2026-05-06 18:24 892K
20260506T12Z_MSC_GDPS_AirTemp_IsbL-0650_LatLon0.15_PT012H.grib2 2026-05-06 18:24 920K
20260506T12Z_MSC_GDPS_AirTemp_IsbL-0700_LatLon0.15_PT012H.grib2 2026-05-06 18:24 953K
20260506T12Z_MSC_GDPS_AirTemp_IsbL-0750_LatLon0.15_PT012H.grib2 2026-05-06 18:24 1.0M
20260506T12Z_MSC_GDPS_AirTemp_IsbL-0800_LatLon0.15_PT012H.grib2 2026-05-06 18:24 1.1M
20260506T12Z_MSC_GDPS_AirTemp_IsbL-0850_LatLon0.15_PT012H.grib2 2026-05-06 18:24 1.1M
20260506T12Z_MSC_GDPS_AirTemp_IsbL-0875_LatLon0.15_PT012H.grib2 2026-05-06 18:24 1.2M
20260506T12Z_MSC_GDPS_AirTemp_IsbL-0900_LatLon0.15_PT012H.grib2 2026-05-06 18:24 1.1M
20260506T12Z_MSC_GDPS_AirTemp_IsbL-0925_LatLon0.15_PT012H.grib2 2026-05-06 18:24 1.1M
20260506T12Z_MSC_GDPS_AirTemp_IsbL-0950_LatLon0.15_PT012H.grib2 2026-05-06 18:24 1.1M
20260506T12Z_MSC_GDPS_AirTemp_IsbL-0970_LatLon0.15_PT012H.grib2 2026-05-06 18:24 1.1M
20260506T12Z_MSC_GDPS_AirTemp_IsbL-0985_LatLon0.15_PT012H.grib2 2026-05-06 18:24 1.1M
20260506T12Z_MSC_GDPS_AirTemp_IsbL-1000_LatLon0.15_PT012H.grib2 2026-05-06 18:24 1.1M
20260506T12Z_MSC_GDPS_AirTemp_IsbL-1015_LatLon0.15_PT012H.grib2 2026-05-06 18:24 1.1M
20260506T12Z_MSC_GDPS_Albedo_Sfc_LatLon0.15_PT012H.grib2 2026-05-06 18:24 243K
20260506T12Z_MSC_GDPS_CAPE_Sfc_LatLon0.15_PT012H.grib2 2026-05-06 18:24 3.9M
20260506T12Z_MSC_GDPS_CIN_Sfc_LatLon0.15_PT012H.grib2 2026-05-06 18:24 2.9M
20260506T12Z_MSC_GDPS_CloudWater_EAtm_LatLon0.15_PT012H.grib2 2026-05-06 18:24 534K
20260506T12Z_MSC_GDPS_ConvectivePrecip-Accum_Sfc_LatLon0.15_PT012H.grib2 2026-05-06 18:24 1.9M
20260506T12Z_MSC_GDPS_DewPointDepression_AGL-2m_LatLon0.15_PT012H.grib2 2026-05-06 18:24 764K
20260506T12Z_MSC_GDPS_DewPointDepression_IsbL-0010_LatLon0.15_PT012H.grib2 2026-05-06 18:24 80K
20260506T12Z_MSC_GDPS_DewPointDepression_IsbL-0020_LatLon0.15_PT012H.grib2 2026-05-06 18:24 75K
20260506T12Z_MSC_GDPS_DewPointDepression_IsbL-0030_LatLon0.15_PT012H.grib2 2026-05-06 18:24 90K
20260506T12Z_MSC_GDPS_DewPointDepression_IsbL-0050_LatLon0.15_PT012H.grib2 2026-05-06 18:24 383K
20260506T12Z_MSC_GDPS_DewPointDepression_IsbL-0100_LatLon0.15_PT012H.grib2 2026-05-06 18:24 404K
20260506T12Z_MSC_GDPS_DewPointDepression_IsbL-0150_LatLon0.15_PT012H.grib2 2026-05-06 18:24 495K
20260506T12Z_MSC_GDPS_DewPointDepression_IsbL-0175_LatLon0.15_PT012H.grib2 2026-05-06 18:24 600K
20260506T12Z_MSC_GDPS_DewPointDepression_IsbL-0200_LatLon0.15_PT012H.grib2 2026-05-06 18:24 707K
20260506T12Z_MSC_GDPS_DewPointDepression_IsbL-0225_LatLon0.15_PT012H.grib2 2026-05-06 18:24 784K
20260506T12Z_MSC_GDPS_DewPointDepression_IsbL-0250_LatLon0.15_PT012H.grib2 2026-05-06 18:24 871K
20260506T12Z_MSC_GDPS_DewPointDepression_IsbL-0275_LatLon0.15_PT012H.grib2 2026-05-06 18:24 893K
20260506T12Z_MSC_GDPS_DewPointDepression_IsbL-0300_LatLon0.15_PT012H.grib2 2026-05-06 18:24 935K
20260506T12Z_MSC_GDPS_DewPointDepression_IsbL-0350_LatLon0.15_PT012H.grib2 2026-05-06 18:24 962K
20260506T12Z_MSC_GDPS_DewPointDepression_IsbL-0400_LatLon0.15_PT012H.grib2 2026-05-06 18:24 1.0M
20260506T12Z_MSC_GDPS_DewPointDepression_IsbL-0450_LatLon0.15_PT012H.grib2 2026-05-06 18:24 1.0M
20260506T12Z_MSC_GDPS_DewPointDepression_IsbL-0500_LatLon0.15_PT012H.grib2 2026-05-06 18:24 1.0M
20260506T12Z_MSC_GDPS_DewPointDepression_IsbL-0550_LatLon0.15_PT012H.grib2 2026-05-06 18:24 1.0M
20260506T12Z_MSC_GDPS_DewPointDepression_IsbL-0600_LatLon0.15_PT012H.grib2 2026-05-06 18:24 1.0M
20260506T12Z_MSC_GDPS_DewPointDepression_IsbL-0650_LatLon0.15_PT012H.grib2 2026-05-06 18:24 1.0M
20260506T12Z_MSC_GDPS_DewPointDepression_IsbL-0700_LatLon0.15_PT012H.grib2 2026-05-06 18:24 1.1M
20260506T12Z_MSC_GDPS_DewPointDepression_IsbL-0750_LatLon0.15_PT012H.grib2 2026-05-06 18:24 1.1M
20260506T12Z_MSC_GDPS_DewPointDepression_IsbL-0800_LatLon0.15_PT012H.grib2 2026-05-06 18:24 1.1M
20260506T12Z_MSC_GDPS_DewPointDepression_IsbL-0850_LatLon0.15_PT012H.grib2 2026-05-06 18:24 1.2M
20260506T12Z_MSC_GDPS_DewPointDepression_IsbL-0875_LatLon0.15_PT012H.grib2 2026-05-06 18:24 1.1M
20260506T12Z_MSC_GDPS_DewPointDepression_IsbL-0900_LatLon0.15_PT012H.grib2 2026-05-06 18:24 1.1M
20260506T12Z_MSC_GDPS_DewPointDepression_IsbL-0925_LatLon0.15_PT012H.grib2 2026-05-06 18:24 1.0M
20260506T12Z_MSC_GDPS_DewPointDepression_IsbL-0950_LatLon0.15_PT012H.grib2 2026-05-06 18:24 1.0M
20260506T12Z_MSC_GDPS_DewPointDepression_IsbL-0970_LatLon0.15_PT012H.grib2 2026-05-06 18:24 1.0M
20260506T12Z_MSC_GDPS_DewPointDepression_IsbL-0985_LatLon0.15_PT012H.grib2 2026-05-06 18:24 1.0M
20260506T12Z_MSC_GDPS_DewPointDepression_IsbL-1000_LatLon0.15_PT012H.grib2 2026-05-06 18:24 1.0M
20260506T12Z_MSC_GDPS_DewPointDepression_IsbL-1015_LatLon0.15_PT012H.grib2 2026-05-06 18:24 919K
20260506T12Z_MSC_GDPS_DewPoint_AGL-2m_LatLon0.15_PT012H.grib2 2026-05-06 18:24 601K
20260506T12Z_MSC_GDPS_DownwardLongwaveRadiationFlux-Accum_Sfc_LatLon0.15_PT012H.grib2 2026-05-06 18:24 1.0M
20260506T12Z_MSC_GDPS_DownwardShortwaveRadiationFlux-Accum_NTAtm_LatLon0.15_PT012H.grib2 2026-05-06 18:24 340K
20260506T12Z_MSC_GDPS_DownwardShortwaveRadiationFlux-Accum_Sfc_LatLon0.15_PT012H.grib2 2026-05-06 18:24 901K
20260506T12Z_MSC_GDPS_FreezingRain-Accum12h_Sfc_LatLon0.15_PT012H.grib2 2026-05-06 18:24 85K
20260506T12Z_MSC_GDPS_FreezingRain-Accum1h_Sfc_LatLon0.15_PT012H.grib2 2026-05-06 18:24 27K
20260506T12Z_MSC_GDPS_FreezingRain-Accum3h_Sfc_LatLon0.15_PT012H.grib2 2026-05-06 18:24 35K
20260506T12Z_MSC_GDPS_FreezingRain-Accum6h_Sfc_LatLon0.15_PT012H.grib2 2026-05-06 18:24 51K
20260506T12Z_MSC_GDPS_FreezingRain-Accum_Sfc_LatLon0.15_PT012H.grib2 2026-05-06 18:24 106K
20260506T12Z_MSC_GDPS_GeopotentialHeight_IsbL-0001_LatLon0.15_PT012H.grib2 2026-05-06 18:24 437K
20260506T12Z_MSC_GDPS_GeopotentialHeight_IsbL-0005_LatLon0.15_PT012H.grib2 2026-05-06 18:24 485K
20260506T12Z_MSC_GDPS_GeopotentialHeight_IsbL-0010_LatLon0.15_PT012H.grib2 2026-05-06 18:24 475K
20260506T12Z_MSC_GDPS_GeopotentialHeight_IsbL-0020_LatLon0.15_PT012H.grib2 2026-05-06 18:24 416K
20260506T12Z_MSC_GDPS_GeopotentialHeight_IsbL-0030_LatLon0.15_PT012H.grib2 2026-05-06 18:24 421K
20260506T12Z_MSC_GDPS_GeopotentialHeight_IsbL-0050_LatLon0.15_PT012H.grib2 2026-05-06 18:24 570K
20260506T12Z_MSC_GDPS_GeopotentialHeight_IsbL-0100_LatLon0.15_PT012H.grib2 2026-05-06 18:24 604K
20260506T12Z_MSC_GDPS_GeopotentialHeight_IsbL-0150_LatLon0.15_PT012H.grib2 2026-05-06 18:24 625K
20260506T12Z_MSC_GDPS_GeopotentialHeight_IsbL-0175_LatLon0.15_PT012H.grib2 2026-05-06 18:24 629K
20260506T12Z_MSC_GDPS_GeopotentialHeight_IsbL-0200_LatLon0.15_PT012H.grib2 2026-05-06 18:24 633K
20260506T12Z_MSC_GDPS_GeopotentialHeight_IsbL-0225_LatLon0.15_PT012H.grib2 2026-05-06 18:24 636K
20260506T12Z_MSC_GDPS_GeopotentialHeight_IsbL-0250_LatLon0.15_PT012H.grib2 2026-05-06 18:24 640K
20260506T12Z_MSC_GDPS_GeopotentialHeight_IsbL-0275_LatLon0.15_PT012H.grib2 2026-05-06 18:24 639K
20260506T12Z_MSC_GDPS_GeopotentialHeight_IsbL-0300_LatLon0.15_PT012H.grib2 2026-05-06 18:24 631K
20260506T12Z_MSC_GDPS_GeopotentialHeight_IsbL-0350_LatLon0.15_PT012H.grib2 2026-05-06 18:24 630K
20260506T12Z_MSC_GDPS_GeopotentialHeight_IsbL-0400_LatLon0.15_PT012H.grib2 2026-05-06 18:24 620K
20260506T12Z_MSC_GDPS_GeopotentialHeight_IsbL-0450_LatLon0.15_PT012H.grib2 2026-05-06 18:24 542K
20260506T12Z_MSC_GDPS_GeopotentialHeight_IsbL-0500_LatLon0.15_PT012H.grib2 2026-05-06 18:24 533K
20260506T12Z_MSC_GDPS_GeopotentialHeight_IsbL-0550_LatLon0.15_PT012H.grib2 2026-05-06 18:24 526K
20260506T12Z_MSC_GDPS_GeopotentialHeight_IsbL-0600_LatLon0.15_PT012H.grib2 2026-05-06 18:24 690K
20260506T12Z_MSC_GDPS_GeopotentialHeight_IsbL-0650_LatLon0.15_PT012H.grib2 2026-05-06 18:24 688K
20260506T12Z_MSC_GDPS_GeopotentialHeight_IsbL-0700_LatLon0.15_PT012H.grib2 2026-05-06 18:24 685K
20260506T12Z_MSC_GDPS_GeopotentialHeight_IsbL-0750_LatLon0.15_PT012H.grib2 2026-05-06 18:24 690K
20260506T12Z_MSC_GDPS_GeopotentialHeight_IsbL-0800_LatLon0.15_PT012H.grib2 2026-05-06 18:24 702K
20260506T12Z_MSC_GDPS_GeopotentialHeight_IsbL-0850_LatLon0.15_PT012H.grib2 2026-05-06 18:24 708K
20260506T12Z_MSC_GDPS_GeopotentialHeight_IsbL-0875_LatLon0.15_PT012H.grib2 2026-05-06 18:24 713K
20260506T12Z_MSC_GDPS_GeopotentialHeight_IsbL-0900_LatLon0.15_PT012H.grib2 2026-05-06 18:24 724K
20260506T12Z_MSC_GDPS_GeopotentialHeight_IsbL-0925_LatLon0.15_PT012H.grib2 2026-05-06 18:24 730K
20260506T12Z_MSC_GDPS_GeopotentialHeight_IsbL-0950_LatLon0.15_PT012H.grib2 2026-05-06 18:24 735K
20260506T12Z_MSC_GDPS_GeopotentialHeight_IsbL-0970_LatLon0.15_PT012H.grib2 2026-05-06 18:24 746K
20260506T12Z_MSC_GDPS_GeopotentialHeight_IsbL-0985_LatLon0.15_PT012H.grib2 2026-05-06 18:24 759K
20260506T12Z_MSC_GDPS_GeopotentialHeight_IsbL-1000_LatLon0.15_PT012H.grib2 2026-05-06 18:24 780K
20260506T12Z_MSC_GDPS_GeopotentialHeight_IsbL-1015_LatLon0.15_PT012H.grib2 2026-05-06 18:24 802K
20260506T12Z_MSC_GDPS_Humidex_Sfc_LatLon0.15_PT012H.grib2 2026-05-06 18:24 5.3M
20260506T12Z_MSC_GDPS_IcePellets-Accum12h_Sfc_LatLon0.15_PT012H.grib2 2026-05-06 18:24 15K
20260506T12Z_MSC_GDPS_IcePellets-Accum1h_Sfc_LatLon0.15_PT012H.grib2 2026-05-06 18:24 7.6K
20260506T12Z_MSC_GDPS_IcePellets-Accum3h_Sfc_LatLon0.15_PT012H.grib2 2026-05-06 18:24 8.7K
20260506T12Z_MSC_GDPS_IcePellets-Accum6h_Sfc_LatLon0.15_PT012H.grib2 2026-05-06 18:24 12K
20260506T12Z_MSC_GDPS_IcePellets-Accum_Sfc_LatLon0.15_PT012H.grib2 2026-05-06 18:24 17K
20260506T12Z_MSC_GDPS_KIndex_Sfc_LatLon0.15_PT012H.grib2 2026-05-06 18:24 6.5M
20260506T12Z_MSC_GDPS_LatentHeatNetFlux_Sfc_LatLon0.15_PT012H.grib2 2026-05-06 18:24 670K
20260506T12Z_MSC_GDPS_LiftedIndex-MU-VT_IsbL-0500_LatLon0.15_PT012H.grib2 2026-05-06 18:24 5.3M
20260506T12Z_MSC_GDPS_NetLongwaveRadiationFlux-Accum_Sfc_LatLon0.15_PT012H.grib2 2026-05-06 18:24 1.3M
20260506T12Z_MSC_GDPS_NetShortwaveRadiationFlux-Accum_Sfc_LatLon0.15_PT012H.grib2 2026-05-06 18:24 857K
20260506T12Z_MSC_GDPS_O3MixingRatio_Sfc_LatLon0.15_PT012H.grib2 2026-05-06 18:18 2.4M
20260506T12Z_MSC_GDPS_O3_EAtm_LatLon0.15_PT012H.grib2 2026-05-06 18:18 2.5M
20260506T12Z_MSC_GDPS_PlanetaryBoundaryLayerHeight_Sfc_LatLon0.15_PT012H.grib2 2026-05-06 18:24 2.4M
20260506T12Z_MSC_GDPS_Precip-Accum12h_Sfc_LatLon0.15_PT012H.grib2 2026-05-06 18:24 4.0M
20260506T12Z_MSC_GDPS_Precip-Accum1h_Sfc_LatLon0.15_PT012H.grib2 2026-05-06 18:24 3.2M
20260506T12Z_MSC_GDPS_Precip-Accum3h_Sfc_LatLon0.15_PT012H.grib2 2026-05-06 18:24 3.4M
20260506T12Z_MSC_GDPS_Precip-Accum6h_Sfc_LatLon0.15_PT012H.grib2 2026-05-06 18:24 3.8M
20260506T12Z_MSC_GDPS_Precip-Accum_Sfc_LatLon0.15_PT012H.grib2 2026-05-06 18:24 3.9M
20260506T12Z_MSC_GDPS_PrecipRate_Sfc_LatLon0.15_PT012H.grib2 2026-05-06 18:24 2.9M
20260506T12Z_MSC_GDPS_PrecipType-Instant_Sfc_LatLon0.15_PT012H.grib2 2026-05-06 18:24 1.5M
20260506T12Z_MSC_GDPS_Pressure_MSL_LatLon0.15_PT012H.grib2 2026-05-06 18:24 715K
20260506T12Z_MSC_GDPS_Pressure_PVU-1.5_LatLon0.15_PT012H.grib2 2026-05-06 18:24 5.8M
20260506T12Z_MSC_GDPS_Pressure_PVU-1_LatLon0.15_PT012H.grib2 2026-05-06 18:24 6.0M
20260506T12Z_MSC_GDPS_Pressure_PVU-2_LatLon0.15_PT012H.grib2 2026-05-06 18:24 5.6M
20260506T12Z_MSC_GDPS_Pressure_Sfc_LatLon0.15_PT012H.grib2 2026-05-06 18:24 1.1M
20260506T12Z_MSC_GDPS_RadiativeTemp_Sfc_LatLon0.15_PT012H.grib2 2026-05-06 18:24 647K
20260506T12Z_MSC_GDPS_Rain-Accum12h_Sfc_LatLon0.15_PT012H.grib2 2026-05-06 18:24 2.7M
20260506T12Z_MSC_GDPS_Rain-Accum1h_Sfc_LatLon0.15_PT012H.grib2 2026-05-06 18:24 1.6M
20260506T12Z_MSC_GDPS_Rain-Accum3h_Sfc_LatLon0.15_PT012H.grib2 2026-05-06 18:24 1.8M
20260506T12Z_MSC_GDPS_Rain-Accum6h_Sfc_LatLon0.15_PT012H.grib2 2026-05-06 18:24 2.4M
20260506T12Z_MSC_GDPS_Rain-Accum_Sfc_LatLon0.15_PT012H.grib2 2026-05-06 18:24 2.8M
20260506T12Z_MSC_GDPS_RelativeHumidity_AGL-2m_LatLon0.15_PT012H.grib2 2026-05-06 18:24 1.0M
20260506T12Z_MSC_GDPS_RelativeHumidity_IsbL-0010_LatLon0.15_PT012H.grib2 2026-05-06 18:24 155K
20260506T12Z_MSC_GDPS_RelativeHumidity_IsbL-0020_LatLon0.15_PT012H.grib2 2026-05-06 18:24 179K
20260506T12Z_MSC_GDPS_RelativeHumidity_IsbL-0030_LatLon0.15_PT012H.grib2 2026-05-06 18:24 277K
20260506T12Z_MSC_GDPS_RelativeHumidity_IsbL-0050_LatLon0.15_PT012H.grib2 2026-05-06 18:24 339K
20260506T12Z_MSC_GDPS_RelativeHumidity_IsbL-0100_LatLon0.15_PT012H.grib2 2026-05-06 18:24 516K
20260506T12Z_MSC_GDPS_RelativeHumidity_IsbL-0150_LatLon0.15_PT012H.grib2 2026-05-06 18:24 684K
20260506T12Z_MSC_GDPS_RelativeHumidity_IsbL-0175_LatLon0.15_PT012H.grib2 2026-05-06 18:24 805K
20260506T12Z_MSC_GDPS_RelativeHumidity_IsbL-0200_LatLon0.15_PT012H.grib2 2026-05-06 18:24 713K
20260506T12Z_MSC_GDPS_RelativeHumidity_IsbL-0225_LatLon0.15_PT012H.grib2 2026-05-06 18:24 793K
20260506T12Z_MSC_GDPS_RelativeHumidity_IsbL-0250_LatLon0.15_PT012H.grib2 2026-05-06 18:24 862K
20260506T12Z_MSC_GDPS_RelativeHumidity_IsbL-0275_LatLon0.15_PT012H.grib2 2026-05-06 18:24 881K
20260506T12Z_MSC_GDPS_RelativeHumidity_IsbL-0300_LatLon0.15_PT012H.grib2 2026-05-06 18:24 925K
20260506T12Z_MSC_GDPS_RelativeHumidity_IsbL-0350_LatLon0.15_PT012H.grib2 2026-05-06 18:24 948K
20260506T12Z_MSC_GDPS_RelativeHumidity_IsbL-0400_LatLon0.15_PT012H.grib2 2026-05-06 18:24 1.0M
20260506T12Z_MSC_GDPS_RelativeHumidity_IsbL-0450_LatLon0.15_PT012H.grib2 2026-05-06 18:24 1.0M
20260506T12Z_MSC_GDPS_RelativeHumidity_IsbL-0500_LatLon0.15_PT012H.grib2 2026-05-06 18:24 1.0M
20260506T12Z_MSC_GDPS_RelativeHumidity_IsbL-0550_LatLon0.15_PT012H.grib2 2026-05-06 18:24 1.1M
20260506T12Z_MSC_GDPS_RelativeHumidity_IsbL-0600_LatLon0.15_PT012H.grib2 2026-05-06 18:24 1.1M
20260506T12Z_MSC_GDPS_RelativeHumidity_IsbL-0650_LatLon0.15_PT012H.grib2 2026-05-06 18:24 1.1M
20260506T12Z_MSC_GDPS_RelativeHumidity_IsbL-0700_LatLon0.15_PT012H.grib2 2026-05-06 18:24 1.1M
20260506T12Z_MSC_GDPS_RelativeHumidity_IsbL-0750_LatLon0.15_PT012H.grib2 2026-05-06 18:24 1.2M
20260506T12Z_MSC_GDPS_RelativeHumidity_IsbL-0800_LatLon0.15_PT012H.grib2 2026-05-06 18:24 1.2M
20260506T12Z_MSC_GDPS_RelativeHumidity_IsbL-0850_LatLon0.15_PT012H.grib2 2026-05-06 18:24 1.3M
20260506T12Z_MSC_GDPS_RelativeHumidity_IsbL-0875_LatLon0.15_PT012H.grib2 2026-05-06 18:24 1.3M
20260506T12Z_MSC_GDPS_RelativeHumidity_IsbL-0900_LatLon0.15_PT012H.grib2 2026-05-06 18:24 1.2M
20260506T12Z_MSC_GDPS_RelativeHumidity_IsbL-0925_LatLon0.15_PT012H.grib2 2026-05-06 18:24 1.2M
20260506T12Z_MSC_GDPS_RelativeHumidity_IsbL-0950_LatLon0.15_PT012H.grib2 2026-05-06 18:24 1.2M
20260506T12Z_MSC_GDPS_RelativeHumidity_IsbL-0970_LatLon0.15_PT012H.grib2 2026-05-06 18:24 1.2M
20260506T12Z_MSC_GDPS_RelativeHumidity_IsbL-0985_LatLon0.15_PT012H.grib2 2026-05-06 18:24 1.1M
20260506T12Z_MSC_GDPS_RelativeHumidity_IsbL-1000_LatLon0.15_PT012H.grib2 2026-05-06 18:24 1.1M
20260506T12Z_MSC_GDPS_RelativeHumidity_IsbL-1015_LatLon0.15_PT012H.grib2 2026-05-06 18:24 1.0M
20260506T12Z_MSC_GDPS_RelativeVorticity_IsbL-0200_LatLon0.15_PT012H.grib2 2026-05-06 18:24 1.5M
20260506T12Z_MSC_GDPS_RelativeVorticity_IsbL-0250_LatLon0.15_PT012H.grib2 2026-05-06 18:24 1.3M
20260506T12Z_MSC_GDPS_RelativeVorticity_IsbL-0500_LatLon0.15_PT012H.grib2 2026-05-06 18:24 1.5M
20260506T12Z_MSC_GDPS_RelativeVorticity_IsbL-0700_LatLon0.15_PT012H.grib2 2026-05-06 18:24 1.3M
20260506T12Z_MSC_GDPS_RelativeVorticity_IsbL-0850_LatLon0.15_PT012H.grib2 2026-05-06 18:24 1.6M
20260506T12Z_MSC_GDPS_Runoff-Accum_Sfc_LatLon0.15_PT012H.grib2 2026-05-06 18:24 85K
20260506T12Z_MSC_GDPS_SensibleHeatNetFlux_Sfc_LatLon0.15_PT012H.grib2 2026-05-06 18:24 451K
20260506T12Z_MSC_GDPS_ShowalterIndex_IsbL-0500_LatLon0.15_PT012H.grib2 2026-05-06 18:24 6.2M
20260506T12Z_MSC_GDPS_Snow-Accum12h_Sfc_LatLon0.15_PT012H.grib2 2026-05-06 18:24 1.5M
20260506T12Z_MSC_GDPS_Snow-Accum1h_Sfc_LatLon0.15_PT012H.grib2 2026-05-06 18:24 1.0M
20260506T12Z_MSC_GDPS_Snow-Accum3h_Sfc_LatLon0.15_PT012H.grib2 2026-05-06 18:24 1.1M
20260506T12Z_MSC_GDPS_Snow-Accum6h_Sfc_LatLon0.15_PT012H.grib2 2026-05-06 18:24 1.4M
20260506T12Z_MSC_GDPS_Snow-Accum_Sfc_LatLon0.15_PT012H.grib2 2026-05-06 18:24 1.6M
20260506T12Z_MSC_GDPS_SnowDensity_Sfc_LatLon0.15_PT012H.grib2 2026-05-06 18:24 247K
20260506T12Z_MSC_GDPS_SnowDepth_Sfc_LatLon0.15_PT012H.grib2 2026-05-06 18:24 1.7M
20260506T12Z_MSC_GDPS_SoilTemp_DBS-0to10cm_LatLon0.15_PT012H.grib2 2026-05-06 18:24 497K
20260506T12Z_MSC_GDPS_SoilTemp_Sfc_LatLon0.15_PT012H.grib2 2026-05-06 18:24 569K
20260506T12Z_MSC_GDPS_SoilVolumetricIceContent_Sfc_LatLon0.15_PT012H.grib2 2026-05-06 18:24 187K
20260506T12Z_MSC_GDPS_SoilVolumetricWaterContent_DBS-0to10cm_LatLon0.15_PT012H.grib2 2026-05-06 18:24 594K
20260506T12Z_MSC_GDPS_SoilVolumetricWaterContent_DBS-0to1cm_LatLon0.15_PT012H.grib2 2026-05-06 18:24 651K
20260506T12Z_MSC_GDPS_SpecificHumidity_AGL-120m_LatLon0.15_PT012H.grib2 2026-05-06 18:24 1.1M
20260506T12Z_MSC_GDPS_SpecificHumidity_AGL-2m_LatLon0.15_PT012H.grib2 2026-05-06 18:24 1.2M
20260506T12Z_MSC_GDPS_SpecificHumidity_AGL-40m_LatLon0.15_PT012H.grib2 2026-05-06 18:24 1.1M
20260506T12Z_MSC_GDPS_SpecificHumidity_AGL-80m_LatLon0.15_PT012H.grib2 2026-05-06 18:24 1.1M
20260506T12Z_MSC_GDPS_SpecificHumidity_IsbL-0001_LatLon0.15_PT012H.grib2 2026-05-06 18:24 1.1M
20260506T12Z_MSC_GDPS_SpecificHumidity_IsbL-0005_LatLon0.15_PT012H.grib2 2026-05-06 18:24 1.3M
20260506T12Z_MSC_GDPS_SpecificHumidity_IsbL-0010_LatLon0.15_PT012H.grib2 2026-05-06 18:24 1.4M
20260506T12Z_MSC_GDPS_SpecificHumidity_IsbL-0020_LatLon0.15_PT012H.grib2 2026-05-06 18:24 1.4M
20260506T12Z_MSC_GDPS_SpecificHumidity_IsbL-0030_LatLon0.15_PT012H.grib2 2026-05-06 18:24 1.4M
20260506T12Z_MSC_GDPS_SpecificHumidity_IsbL-0050_LatLon0.15_PT012H.grib2 2026-05-06 18:24 1.4M
20260506T12Z_MSC_GDPS_SpecificHumidity_IsbL-0100_LatLon0.15_PT012H.grib2 2026-05-06 18:24 1.3M
20260506T12Z_MSC_GDPS_SpecificHumidity_IsbL-0150_LatLon0.15_PT012H.grib2 2026-05-06 18:24 1.3M
20260506T12Z_MSC_GDPS_SpecificHumidity_IsbL-0175_LatLon0.15_PT012H.grib2 2026-05-06 18:24 1.3M
20260506T12Z_MSC_GDPS_SpecificHumidity_IsbL-0200_LatLon0.15_PT012H.grib2 2026-05-06 18:24 1.3M
20260506T12Z_MSC_GDPS_SpecificHumidity_IsbL-0225_LatLon0.15_PT012H.grib2 2026-05-06 18:24 1.3M
20260506T12Z_MSC_GDPS_SpecificHumidity_IsbL-0250_LatLon0.15_PT012H.grib2 2026-05-06 18:24 1.4M
20260506T12Z_MSC_GDPS_SpecificHumidity_IsbL-0275_LatLon0.15_PT012H.grib2 2026-05-06 18:24 1.3M
20260506T12Z_MSC_GDPS_SpecificHumidity_IsbL-0300_LatLon0.15_PT012H.grib2 2026-05-06 18:24 1.2M
20260506T12Z_MSC_GDPS_SpecificHumidity_IsbL-0350_LatLon0.15_PT012H.grib2 2026-05-06 18:24 1.2M
20260506T12Z_MSC_GDPS_SpecificHumidity_IsbL-0400_LatLon0.15_PT012H.grib2 2026-05-06 18:24 1.5M
20260506T12Z_MSC_GDPS_SpecificHumidity_IsbL-0450_LatLon0.15_PT012H.grib2 2026-05-06 18:24 1.6M
20260506T12Z_MSC_GDPS_SpecificHumidity_IsbL-0500_LatLon0.15_PT012H.grib2 2026-05-06 18:24 1.4M
20260506T12Z_MSC_GDPS_SpecificHumidity_IsbL-0550_LatLon0.15_PT012H.grib2 2026-05-06 18:24 1.6M
20260506T12Z_MSC_GDPS_SpecificHumidity_IsbL-0600_LatLon0.15_PT012H.grib2 2026-05-06 18:24 1.7M
20260506T12Z_MSC_GDPS_SpecificHumidity_IsbL-0650_LatLon0.15_PT012H.grib2 2026-05-06 18:24 1.5M
20260506T12Z_MSC_GDPS_SpecificHumidity_IsbL-0700_LatLon0.15_PT012H.grib2 2026-05-06 18:24 1.6M
20260506T12Z_MSC_GDPS_SpecificHumidity_IsbL-0750_LatLon0.15_PT012H.grib2 2026-05-06 18:24 1.7M
20260506T12Z_MSC_GDPS_SpecificHumidity_IsbL-0800_LatLon0.15_PT012H.grib2 2026-05-06 18:24 1.8M
20260506T12Z_MSC_GDPS_SpecificHumidity_IsbL-0850_LatLon0.15_PT012H.grib2 2026-05-06 18:24 1.9M
20260506T12Z_MSC_GDPS_SpecificHumidity_IsbL-0875_LatLon0.15_PT012H.grib2 2026-05-06 18:24 1.9M
20260506T12Z_MSC_GDPS_SpecificHumidity_IsbL-0900_LatLon0.15_PT012H.grib2 2026-05-06 18:24 1.9M
20260506T12Z_MSC_GDPS_SpecificHumidity_IsbL-0925_LatLon0.15_PT012H.grib2 2026-05-06 18:24 1.6M
20260506T12Z_MSC_GDPS_SpecificHumidity_IsbL-0950_LatLon0.15_PT012H.grib2 2026-05-06 18:24 1.6M
20260506T12Z_MSC_GDPS_SpecificHumidity_IsbL-0970_LatLon0.15_PT012H.grib2 2026-05-06 18:24 1.5M
20260506T12Z_MSC_GDPS_SpecificHumidity_IsbL-0985_LatLon0.15_PT012H.grib2 2026-05-06 18:24 1.5M
20260506T12Z_MSC_GDPS_SpecificHumidity_IsbL-1000_LatLon0.15_PT012H.grib2 2026-05-06 18:24 1.5M
20260506T12Z_MSC_GDPS_SpecificHumidity_IsbL-1015_LatLon0.15_PT012H.grib2 2026-05-06 18:24 1.4M
20260506T12Z_MSC_GDPS_SpecificHumidity_Sfc_LatLon0.15_PT012H.grib2 2026-05-06 18:24 628K
20260506T12Z_MSC_GDPS_Thickness_IsbL-0850to0700_LatLon0.15_PT012H.grib2 2026-05-06 18:24 467K
20260506T12Z_MSC_GDPS_Thickness_IsbL-1000to0500_LatLon0.15_PT012H.grib2 2026-05-06 18:24 369K
20260506T12Z_MSC_GDPS_Thickness_IsbL-1000to0850_LatLon0.15_PT012H.grib2 2026-05-06 18:24 484K
20260506T12Z_MSC_GDPS_TotalCloudCover_Sfc_LatLon0.15_PT012H.grib2 2026-05-06 18:24 829K
20260506T12Z_MSC_GDPS_TotalTotalsIndex_Sfc_LatLon0.15_PT012H.grib2 2026-05-06 18:24 6.2M
20260506T12Z_MSC_GDPS_UVIndex-ClearSky_Sfc_LatLon0.15_PT012H.grib2 2026-05-06 18:18 1.0M
20260506T12Z_MSC_GDPS_UVIndex_Sfc_LatLon0.15_PT012H.grib2 2026-05-06 18:18 1.5M
20260506T12Z_MSC_GDPS_UpwardLongwaveRadiationFlux_NTAtm_LatLon0.15_PT012H.grib2 2026-05-06 18:24 1.0M
20260506T12Z_MSC_GDPS_VerticalVelocity_IsbL-0200_LatLon0.15_PT012H.grib2 2026-05-06 18:24 936K
20260506T12Z_MSC_GDPS_VerticalVelocity_IsbL-0250_LatLon0.15_PT012H.grib2 2026-05-06 18:24 1.0M
20260506T12Z_MSC_GDPS_VerticalVelocity_IsbL-0500_LatLon0.15_PT012H.grib2 2026-05-06 18:24 1.0M
20260506T12Z_MSC_GDPS_VerticalVelocity_IsbL-0600_LatLon0.15_PT012H.grib2 2026-05-06 18:24 1.1M
20260506T12Z_MSC_GDPS_VerticalVelocity_IsbL-0700_LatLon0.15_PT012H.grib2 2026-05-06 18:24 1.1M
20260506T12Z_MSC_GDPS_VerticalVelocity_IsbL-0850_LatLon0.15_PT012H.grib2 2026-05-06 18:24 1.3M
20260506T12Z_MSC_GDPS_WindChill_Sfc_LatLon0.15_PT012H.grib2 2026-05-06 18:24 5.3M
20260506T12Z_MSC_GDPS_WindDir_AGL-10m_LatLon0.15_PT012H.grib2 2026-05-06 18:24 1.3M
20260506T12Z_MSC_GDPS_WindDir_AGL-120m_LatLon0.15_PT012H.grib2 2026-05-06 18:24 1.3M
20260506T12Z_MSC_GDPS_WindDir_AGL-40m_LatLon0.15_PT012H.grib2 2026-05-06 18:24 1.4M
20260506T12Z_MSC_GDPS_WindDir_AGL-80m_LatLon0.15_PT012H.grib2 2026-05-06 18:24 1.3M
20260506T12Z_MSC_GDPS_WindDir_IsbL-0001_LatLon0.15_PT012H.grib2 2026-05-06 18:24 675K
20260506T12Z_MSC_GDPS_WindDir_IsbL-0005_LatLon0.15_PT012H.grib2 2026-05-06 18:24 827K
20260506T12Z_MSC_GDPS_WindDir_IsbL-0010_LatLon0.15_PT012H.grib2 2026-05-06 18:24 847K
20260506T12Z_MSC_GDPS_WindDir_IsbL-0020_LatLon0.15_PT012H.grib2 2026-05-06 18:24 936K
20260506T12Z_MSC_GDPS_WindDir_IsbL-0030_LatLon0.15_PT012H.grib2 2026-05-06 18:24 949K
20260506T12Z_MSC_GDPS_WindDir_IsbL-0050_LatLon0.15_PT012H.grib2 2026-05-06 18:24 951K
20260506T12Z_MSC_GDPS_WindDir_IsbL-0100_LatLon0.15_PT012H.grib2 2026-05-06 18:24 1.0M
20260506T12Z_MSC_GDPS_WindDir_IsbL-0150_LatLon0.15_PT012H.grib2 2026-05-06 18:24 1.0M
20260506T12Z_MSC_GDPS_WindDir_IsbL-0175_LatLon0.15_PT012H.grib2 2026-05-06 18:24 1.0M
20260506T12Z_MSC_GDPS_WindDir_IsbL-0200_LatLon0.15_PT012H.grib2 2026-05-06 18:24 1.1M
20260506T12Z_MSC_GDPS_WindDir_IsbL-0225_LatLon0.15_PT012H.grib2 2026-05-06 18:24 1.1M
20260506T12Z_MSC_GDPS_WindDir_IsbL-0250_LatLon0.15_PT012H.grib2 2026-05-06 18:24 1.1M
20260506T12Z_MSC_GDPS_WindDir_IsbL-0275_LatLon0.15_PT012H.grib2 2026-05-06 18:24 1.2M
20260506T12Z_MSC_GDPS_WindDir_IsbL-0300_LatLon0.15_PT012H.grib2 2026-05-06 18:24 1.2M
20260506T12Z_MSC_GDPS_WindDir_IsbL-0350_LatLon0.15_PT012H.grib2 2026-05-06 18:24 1.2M
20260506T12Z_MSC_GDPS_WindDir_IsbL-0400_LatLon0.15_PT012H.grib2 2026-05-06 18:24 1.3M
20260506T12Z_MSC_GDPS_WindDir_IsbL-0450_LatLon0.15_PT012H.grib2 2026-05-06 18:24 1.3M
20260506T12Z_MSC_GDPS_WindDir_IsbL-0500_LatLon0.15_PT012H.grib2 2026-05-06 18:24 1.4M
20260506T12Z_MSC_GDPS_WindDir_IsbL-0550_LatLon0.15_PT012H.grib2 2026-05-06 18:24 1.4M
20260506T12Z_MSC_GDPS_WindDir_IsbL-0600_LatLon0.15_PT012H.grib2 2026-05-06 18:24 1.4M
20260506T12Z_MSC_GDPS_WindDir_IsbL-0650_LatLon0.15_PT012H.grib2 2026-05-06 18:24 1.5M
20260506T12Z_MSC_GDPS_WindDir_IsbL-0700_LatLon0.15_PT012H.grib2 2026-05-06 18:24 1.6M
20260506T12Z_MSC_GDPS_WindDir_IsbL-0750_LatLon0.15_PT012H.grib2 2026-05-06 18:24 1.7M
20260506T12Z_MSC_GDPS_WindDir_IsbL-0800_LatLon0.15_PT012H.grib2 2026-05-06 18:24 1.8M
20260506T12Z_MSC_GDPS_WindDir_IsbL-0850_LatLon0.15_PT012H.grib2 2026-05-06 18:24 1.9M
20260506T12Z_MSC_GDPS_WindDir_IsbL-0875_LatLon0.15_PT012H.grib2 2026-05-06 18:24 1.9M
20260506T12Z_MSC_GDPS_WindDir_IsbL-0900_LatLon0.15_PT012H.grib2 2026-05-06 18:24 1.9M
20260506T12Z_MSC_GDPS_WindDir_IsbL-0925_LatLon0.15_PT012H.grib2 2026-05-06 18:24 1.9M
20260506T12Z_MSC_GDPS_WindDir_IsbL-0950_LatLon0.15_PT012H.grib2 2026-05-06 18:24 1.9M
20260506T12Z_MSC_GDPS_WindDir_IsbL-0970_LatLon0.15_PT012H.grib2 2026-05-06 18:24 2.0M
20260506T12Z_MSC_GDPS_WindDir_IsbL-0985_LatLon0.15_PT012H.grib2 2026-05-06 18:24 2.0M
20260506T12Z_MSC_GDPS_WindDir_IsbL-1000_LatLon0.15_PT012H.grib2 2026-05-06 18:24 2.0M
20260506T12Z_MSC_GDPS_WindDir_IsbL-1015_LatLon0.15_PT012H.grib2 2026-05-06 18:24 2.0M
20260506T12Z_MSC_GDPS_WindGust-Max_AGL-10m_LatLon0.15_PT012H.grib2 2026-05-06 18:24 2.2M
20260506T12Z_MSC_GDPS_WindGust-Min_AGL-10m_LatLon0.15_PT012H.grib2 2026-05-06 18:24 2.2M
20260506T12Z_MSC_GDPS_WindGust_AGL-10m_LatLon0.15_PT012H.grib2 2026-05-06 18:24 2.2M
20260506T12Z_MSC_GDPS_WindSpeed_AGL-10m_LatLon0.15_PT012H.grib2 2026-05-06 18:24 1.1M
20260506T12Z_MSC_GDPS_WindSpeed_AGL-120m_LatLon0.15_PT012H.grib2 2026-05-06 18:24 1.2M
20260506T12Z_MSC_GDPS_WindSpeed_AGL-40m_LatLon0.15_PT012H.grib2 2026-05-06 18:24 1.2M
20260506T12Z_MSC_GDPS_WindSpeed_AGL-80m_LatLon0.15_PT012H.grib2 2026-05-06 18:24 1.2M
20260506T12Z_MSC_GDPS_WindSpeed_IsbL-0001_LatLon0.15_PT012H.grib2 2026-05-06 18:24 655K
20260506T12Z_MSC_GDPS_WindSpeed_IsbL-0005_LatLon0.15_PT012H.grib2 2026-05-06 18:24 707K
20260506T12Z_MSC_GDPS_WindSpeed_IsbL-0010_LatLon0.15_PT012H.grib2 2026-05-06 18:24 642K
20260506T12Z_MSC_GDPS_WindSpeed_IsbL-0020_LatLon0.15_PT012H.grib2 2026-05-06 18:24 675K
20260506T12Z_MSC_GDPS_WindSpeed_IsbL-0030_LatLon0.15_PT012H.grib2 2026-05-06 18:24 878K
20260506T12Z_MSC_GDPS_WindSpeed_IsbL-0050_LatLon0.15_PT012H.grib2 2026-05-06 18:24 913K
20260506T12Z_MSC_GDPS_WindSpeed_IsbL-0100_LatLon0.15_PT012H.grib2 2026-05-06 18:24 1.1M
20260506T12Z_MSC_GDPS_WindSpeed_IsbL-0150_LatLon0.15_PT012H.grib2 2026-05-06 18:24 1.0M
20260506T12Z_MSC_GDPS_WindSpeed_IsbL-0175_LatLon0.15_PT012H.grib2 2026-05-06 18:24 1.0M
20260506T12Z_MSC_GDPS_WindSpeed_IsbL-0200_LatLon0.15_PT012H.grib2 2026-05-06 18:24 1.1M
20260506T12Z_MSC_GDPS_WindSpeed_IsbL-0225_LatLon0.15_PT012H.grib2 2026-05-06 18:24 1.1M
20260506T12Z_MSC_GDPS_WindSpeed_IsbL-0250_LatLon0.15_PT012H.grib2 2026-05-06 18:24 1.1M
20260506T12Z_MSC_GDPS_WindSpeed_IsbL-0275_LatLon0.15_PT012H.grib2 2026-05-06 18:24 1.1M
20260506T12Z_MSC_GDPS_WindSpeed_IsbL-0300_LatLon0.15_PT012H.grib2 2026-05-06 18:24 1.1M
20260506T12Z_MSC_GDPS_WindSpeed_IsbL-0350_LatLon0.15_PT012H.grib2 2026-05-06 18:24 1.1M
20260506T12Z_MSC_GDPS_WindSpeed_IsbL-0400_LatLon0.15_PT012H.grib2 2026-05-06 18:24 1.1M
20260506T12Z_MSC_GDPS_WindSpeed_IsbL-0450_LatLon0.15_PT012H.grib2 2026-05-06 18:24 1.1M
20260506T12Z_MSC_GDPS_WindSpeed_IsbL-0500_LatLon0.15_PT012H.grib2 2026-05-06 18:24 1.1M
20260506T12Z_MSC_GDPS_WindSpeed_IsbL-0550_LatLon0.15_PT012H.grib2 2026-05-06 18:24 1.1M
20260506T12Z_MSC_GDPS_WindSpeed_IsbL-0600_LatLon0.15_PT012H.grib2 2026-05-06 18:24 1.1M
20260506T12Z_MSC_GDPS_WindSpeed_IsbL-0650_LatLon0.15_PT012H.grib2 2026-05-06 18:24 1.2M
20260506T12Z_MSC_GDPS_WindSpeed_IsbL-0700_LatLon0.15_PT012H.grib2 2026-05-06 18:24 1.2M
20260506T12Z_MSC_GDPS_WindSpeed_IsbL-0750_LatLon0.15_PT012H.grib2 2026-05-06 18:24 1.6M
20260506T12Z_MSC_GDPS_WindSpeed_IsbL-0800_LatLon0.15_PT012H.grib2 2026-05-06 18:24 1.6M
20260506T12Z_MSC_GDPS_WindSpeed_IsbL-0850_LatLon0.15_PT012H.grib2 2026-05-06 18:24 1.7M
20260506T12Z_MSC_GDPS_WindSpeed_IsbL-0875_LatLon0.15_PT012H.grib2 2026-05-06 18:24 1.8M
20260506T12Z_MSC_GDPS_WindSpeed_IsbL-0900_LatLon0.15_PT012H.grib2 2026-05-06 18:24 1.8M
20260506T12Z_MSC_GDPS_WindSpeed_IsbL-0925_LatLon0.15_PT012H.grib2 2026-05-06 18:24 1.9M
20260506T12Z_MSC_GDPS_WindSpeed_IsbL-0950_LatLon0.15_PT012H.grib2 2026-05-06 18:24 1.9M
20260506T12Z_MSC_GDPS_WindSpeed_IsbL-0970_LatLon0.15_PT012H.grib2 2026-05-06 18:24 1.9M
20260506T12Z_MSC_GDPS_WindSpeed_IsbL-0985_LatLon0.15_PT012H.grib2 2026-05-06 18:24 1.8M
20260506T12Z_MSC_GDPS_WindSpeed_IsbL-1000_LatLon0.15_PT012H.grib2 2026-05-06 18:24 1.8M
20260506T12Z_MSC_GDPS_WindSpeed_IsbL-1015_LatLon0.15_PT012H.grib2 2026-05-06 18:24 1.8M
20260506T12Z_MSC_GDPS_WindU_AGL-10m_LatLon0.15_PT012H.grib2 2026-05-06 18:24 1.3M
20260506T12Z_MSC_GDPS_WindU_AGL-120m_LatLon0.15_PT012H.grib2 2026-05-06 18:24 969K
20260506T12Z_MSC_GDPS_WindU_AGL-40m_LatLon0.15_PT012H.grib2 2026-05-06 18:24 962K
20260506T12Z_MSC_GDPS_WindU_AGL-80m_LatLon0.15_PT012H.grib2 2026-05-06 18:24 969K
20260506T12Z_MSC_GDPS_WindU_IsbL-0001_LatLon0.15_PT012H.grib2 2026-05-06 18:24 511K
20260506T12Z_MSC_GDPS_WindU_IsbL-0005_LatLon0.15_PT012H.grib2 2026-05-06 18:24 708K
20260506T12Z_MSC_GDPS_WindU_IsbL-0010_LatLon0.15_PT012H.grib2 2026-05-06 18:24 716K
20260506T12Z_MSC_GDPS_WindU_IsbL-0020_LatLon0.15_PT012H.grib2 2026-05-06 18:24 743K
20260506T12Z_MSC_GDPS_WindU_IsbL-0030_LatLon0.15_PT012H.grib2 2026-05-06 18:24 754K
20260506T12Z_MSC_GDPS_WindU_IsbL-0050_LatLon0.15_PT012H.grib2 2026-05-06 18:24 778K
20260506T12Z_MSC_GDPS_WindU_IsbL-0100_LatLon0.15_PT012H.grib2 2026-05-06 18:24 862K
20260506T12Z_MSC_GDPS_WindU_IsbL-0150_LatLon0.15_PT012H.grib2 2026-05-06 18:24 1.0M
20260506T12Z_MSC_GDPS_WindU_IsbL-0175_LatLon0.15_PT012H.grib2 2026-05-06 18:24 1.0M
20260506T12Z_MSC_GDPS_WindU_IsbL-0200_LatLon0.15_PT012H.grib2 2026-05-06 18:24 844K
20260506T12Z_MSC_GDPS_WindU_IsbL-0225_LatLon0.15_PT012H.grib2 2026-05-06 18:24 853K
20260506T12Z_MSC_GDPS_WindU_IsbL-0250_LatLon0.15_PT012H.grib2 2026-05-06 18:24 854K
20260506T12Z_MSC_GDPS_WindU_IsbL-0275_LatLon0.15_PT012H.grib2 2026-05-06 18:24 880K
20260506T12Z_MSC_GDPS_WindU_IsbL-0300_LatLon0.15_PT012H.grib2 2026-05-06 18:24 874K
20260506T12Z_MSC_GDPS_WindU_IsbL-0350_LatLon0.15_PT012H.grib2 2026-05-06 18:24 893K
20260506T12Z_MSC_GDPS_WindU_IsbL-0400_LatLon0.15_PT012H.grib2 2026-05-06 18:24 898K
20260506T12Z_MSC_GDPS_WindU_IsbL-0450_LatLon0.15_PT012H.grib2 2026-05-06 18:24 1.1M
20260506T12Z_MSC_GDPS_WindU_IsbL-0500_LatLon0.15_PT012H.grib2 2026-05-06 18:24 1.1M
20260506T12Z_MSC_GDPS_WindU_IsbL-0550_LatLon0.15_PT012H.grib2 2026-05-06 18:24 1.1M
20260506T12Z_MSC_GDPS_WindU_IsbL-0600_LatLon0.15_PT012H.grib2 2026-05-06 18:24 1.2M
20260506T12Z_MSC_GDPS_WindU_IsbL-0650_LatLon0.15_PT012H.grib2 2026-05-06 18:24 1.2M
20260506T12Z_MSC_GDPS_WindU_IsbL-0700_LatLon0.15_PT012H.grib2 2026-05-06 18:24 1.2M
20260506T12Z_MSC_GDPS_WindU_IsbL-0750_LatLon0.15_PT012H.grib2 2026-05-06 18:24 1.3M
20260506T12Z_MSC_GDPS_WindU_IsbL-0800_LatLon0.15_PT012H.grib2 2026-05-06 18:24 1.4M
20260506T12Z_MSC_GDPS_WindU_IsbL-0850_LatLon0.15_PT012H.grib2 2026-05-06 18:24 1.4M
20260506T12Z_MSC_GDPS_WindU_IsbL-0875_LatLon0.15_PT012H.grib2 2026-05-06 18:24 1.5M
20260506T12Z_MSC_GDPS_WindU_IsbL-0900_LatLon0.15_PT012H.grib2 2026-05-06 18:24 1.5M
20260506T12Z_MSC_GDPS_WindU_IsbL-0925_LatLon0.15_PT012H.grib2 2026-05-06 18:24 1.5M
20260506T12Z_MSC_GDPS_WindU_IsbL-0950_LatLon0.15_PT012H.grib2 2026-05-06 18:24 1.4M
20260506T12Z_MSC_GDPS_WindU_IsbL-0970_LatLon0.15_PT012H.grib2 2026-05-06 18:24 1.4M
20260506T12Z_MSC_GDPS_WindU_IsbL-0985_LatLon0.15_PT012H.grib2 2026-05-06 18:24 1.4M
20260506T12Z_MSC_GDPS_WindU_IsbL-1000_LatLon0.15_PT012H.grib2 2026-05-06 18:24 1.4M
20260506T12Z_MSC_GDPS_WindU_IsbL-1015_LatLon0.15_PT012H.grib2 2026-05-06 18:24 1.3M
20260506T12Z_MSC_GDPS_WindV_AGL-10m_LatLon0.15_PT012H.grib2 2026-05-06 18:24 1.3M
20260506T12Z_MSC_GDPS_WindV_AGL-120m_LatLon0.15_PT012H.grib2 2026-05-06 18:24 1.0M
20260506T12Z_MSC_GDPS_WindV_AGL-40m_LatLon0.15_PT012H.grib2 2026-05-06 18:24 960K
20260506T12Z_MSC_GDPS_WindV_AGL-80m_LatLon0.15_PT012H.grib2 2026-05-06 18:24 967K
20260506T12Z_MSC_GDPS_WindV_IsbL-0001_LatLon0.15_PT012H.grib2 2026-05-06 18:24 727K
20260506T12Z_MSC_GDPS_WindV_IsbL-0005_LatLon0.15_PT012H.grib2 2026-05-06 18:24 872K
20260506T12Z_MSC_GDPS_WindV_IsbL-0010_LatLon0.15_PT012H.grib2 2026-05-06 18:24 807K
20260506T12Z_MSC_GDPS_WindV_IsbL-0020_LatLon0.15_PT012H.grib2 2026-05-06 18:24 859K
20260506T12Z_MSC_GDPS_WindV_IsbL-0030_LatLon0.15_PT012H.grib2 2026-05-06 18:24 867K
20260506T12Z_MSC_GDPS_WindV_IsbL-0050_LatLon0.15_PT012H.grib2 2026-05-06 18:24 1.0M
20260506T12Z_MSC_GDPS_WindV_IsbL-0100_LatLon0.15_PT012H.grib2 2026-05-06 18:24 851K
20260506T12Z_MSC_GDPS_WindV_IsbL-0150_LatLon0.15_PT012H.grib2 2026-05-06 18:24 1.0M
20260506T12Z_MSC_GDPS_WindV_IsbL-0175_LatLon0.15_PT012H.grib2 2026-05-06 18:24 811K
20260506T12Z_MSC_GDPS_WindV_IsbL-0200_LatLon0.15_PT012H.grib2 2026-05-06 18:24 841K
20260506T12Z_MSC_GDPS_WindV_IsbL-0225_LatLon0.15_PT012H.grib2 2026-05-06 18:24 906K
20260506T12Z_MSC_GDPS_WindV_IsbL-0250_LatLon0.15_PT012H.grib2 2026-05-06 18:24 908K
20260506T12Z_MSC_GDPS_WindV_IsbL-0275_LatLon0.15_PT012H.grib2 2026-05-06 18:24 933K
20260506T12Z_MSC_GDPS_WindV_IsbL-0300_LatLon0.15_PT012H.grib2 2026-05-06 18:24 927K
20260506T12Z_MSC_GDPS_WindV_IsbL-0350_LatLon0.15_PT012H.grib2 2026-05-06 18:24 942K
20260506T12Z_MSC_GDPS_WindV_IsbL-0400_LatLon0.15_PT012H.grib2 2026-05-06 18:24 887K
20260506T12Z_MSC_GDPS_WindV_IsbL-0450_LatLon0.15_PT012H.grib2 2026-05-06 18:24 890K
20260506T12Z_MSC_GDPS_WindV_IsbL-0500_LatLon0.15_PT012H.grib2 2026-05-06 18:24 895K
20260506T12Z_MSC_GDPS_WindV_IsbL-0550_LatLon0.15_PT012H.grib2 2026-05-06 18:24 1.1M
20260506T12Z_MSC_GDPS_WindV_IsbL-0600_LatLon0.15_PT012H.grib2 2026-05-06 18:24 1.1M
20260506T12Z_MSC_GDPS_WindV_IsbL-0650_LatLon0.15_PT012H.grib2 2026-05-06 18:24 1.2M
20260506T12Z_MSC_GDPS_WindV_IsbL-0700_LatLon0.15_PT012H.grib2 2026-05-06 18:24 1.2M
20260506T12Z_MSC_GDPS_WindV_IsbL-0750_LatLon0.15_PT012H.grib2 2026-05-06 18:24 1.3M
20260506T12Z_MSC_GDPS_WindV_IsbL-0800_LatLon0.15_PT012H.grib2 2026-05-06 18:24 1.3M
20260506T12Z_MSC_GDPS_WindV_IsbL-0850_LatLon0.15_PT012H.grib2 2026-05-06 18:24 1.4M
20260506T12Z_MSC_GDPS_WindV_IsbL-0875_LatLon0.15_PT012H.grib2 2026-05-06 18:24 1.4M
20260506T12Z_MSC_GDPS_WindV_IsbL-0900_LatLon0.15_PT012H.grib2 2026-05-06 18:24 1.5M
20260506T12Z_MSC_GDPS_WindV_IsbL-0925_LatLon0.15_PT012H.grib2 2026-05-06 18:24 1.5M
20260506T12Z_MSC_GDPS_WindV_IsbL-0950_LatLon0.15_PT012H.grib2 2026-05-06 18:24 1.4M
20260506T12Z_MSC_GDPS_WindV_IsbL-0970_LatLon0.15_PT012H.grib2 2026-05-06 18:24 1.4M
20260506T12Z_MSC_GDPS_WindV_IsbL-0985_LatLon0.15_PT012H.grib2 2026-05-06 18:24 1.4M
20260506T12Z_MSC_GDPS_WindV_IsbL-1000_LatLon0.15_PT012H.grib2 2026-05-06 18:24 1.4M
20260506T12Z_MSC_GDPS_WindV_IsbL-1015_LatLon0.15_PT012H.grib2 2026-05-06 18:24 1.3M